Location: Unspecified
(0.0000°N, 0.0000°E)
Time: 13:15:28
(UTC+00:00)

Transit 4A - Pass Details

Date: 16 December 2018
Orbit: 864 x 981 km, 66.8° (Epoch: 25 March)

Event Time Altitude Azimuth Distance (km) Brightness Sun altitude
Rises 13:14:04 0° 347° (NNW) 3,604 10.8 59.9°
Reaches altitude 10° 13:16:36 10° 350° (N) 2,676 10.2 59.5°
Maximum altitude 13:22:48 63° 71° (ENE) 1,074 8.9 58.5°
Drops below altitude 10° 13:29:07 10° 151° (SSE) 2,729 10.6 57.5°
Sets 13:31:44 0° 154° (SSE) 3,681 11.2 57.0°
